Regional Weather Roundup
Issued by NWS State College, PA

Home | Current Version | Previous Version | Text Only | Print | Product List | Glossary Off
Versions: 1 2 3 4 5 6 7 8 9 10 11 12 13 14 15 16 17 18 19 20 21 22 23 24 25 26 27 28 29 30 31 32 33 34 35 36 37 38 39 40 41 42 43 44 45 46 47 48 49 50

000
ASUS41 KCTP 251803
RWRCTP

REGIONAL WEATHER ROUNDUP
NATIONAL WEATHER SERVICE STATE COLLEGE PA
200 PM EDT WED MAY 25 2016

Note: "fair" indicates few or no clouds below 12,000 feet with no
significant weather and/or obstructions to visibility.

* = STATION THAT DOES NOT REPORT PRECIPITATION /E.G. RAIN...SNOW...ETC/
    THUNDER OR FOG.

PAZ002>004-007>009-013>016-020>023-029>032-251900-
WESTERN PENNSYLVANIA

CITY           SKY/WX    TMP DP  RH WIND       PRES   REMARKS
ERIE           SUNNY     79  54  41 W9        30.12F
MEADVILLE      SUNNY     79  49  34 VRB7      30.14F
FRANKLIN*      SUNNY     81  48  32 W13       30.18F
NEW CASTLE     FAIR      81  49  32 W10       30.16F
BEAVER COUNTY  SUNNY     79  52  38 SW9       30.17F
BUTLER*        SUNNY     81  52  36 SW9       30.20F
PITTSBURGH INT MOSUNNY   79  46  31 SW9       30.17F
PITTSBURGH     SUNNY     79  49  34 SW15      30.17F
INDIANA*       SUNNY     79  55  44 W10G21    30.21F
LATROBE        MOSUNNY   79  50  36 SW9G18    30.19S
WASHINGTON CO* MOSUNNY   79  50  36 W7G20     30.19F
$$

PAZ004>006-010>012-017>019-024>028-033>037-041-042-045-046-049>053-251900-
CENTRAL PENNSYLVANIA

CITY           SKY/WX    TMP DP  RH WIND       PRES   REMARKS
BRADFORD       MOSUNNY   80  44  27 SW10G21   30.16F
DUBOIS         SUNNY     77  49  37 SW12      30.17S
CLEARFIELD     SUNNY     81  49  32 SW10G21   30.16S
JOHNSTOWN      SUNNY     76  45  33 VRB3      30.20F
ALTOONA        MOSUNNY   80  46  30 NW8       30.17F
STATE COLLEGE  NOT AVBL
WILLIAMSPORT   SUNNY     87  41  19 SW15      30.07F
SELINSGROVE    MOSUNNY   85  51  31 VRB6      30.10F
FT INDIANTOWN  MOSUNNY   84  48  28 W12       30.10F
CAPITAL CITY   MOSUNNY   85  48  27 W9        30.10F
HARRISBURG     PTSUNNY   84  48  28 NW9       30.10F
YORK           PTSUNNY   82  50  32 CALM      30.12F
$$

PAZ038>040-043-044-047-048-054-055-060>062-067>071-251900-
EASTERN PENNSYLVANIA

CITY           SKY/WX    TMP DP  RH WIND       PRES   REMARKS
SCRANTON       SUNNY     83  46  27 VRB7      30.09S
MOUNT POCONO   SUNNY     74  39  28 W10       30.13S
ALLENTOWN      SUNNY     86  48  26 SW10G16   30.08F
QUAKERTOWN*    CLEAR     84  46  26 W5        30.11S
READING        SUNNY     85  46  25 VRB7G16   30.09F
LANCASTER      SUNNY     83  53  35 W10       30.11F
COATESVILLE    PTCLDY    82  43  24 W8G16     30.14F
POTTSTOWN      SUNNY     82  48  30 W6        30.11F
BLUE BELL      MOSUNNY   81  50  34 W6        30.09F
DOYLESTOWN     SUNNY     84  42  22 VRB6      30.08F
WILLOW GROVE   NOT AVBL
NORTH PHILA    SUNNY     86  49  27 NW10      30.09F
PHILADELPHIA   PTSUNNY   85  38  18 W13       30.10F
$$



USA.gov is the U.S. government's official web portal to all federal, state and local government web resources and services.